Location: Hopewell Observatory
(38.8698°N, 77.6988°W)
Time: 12:40:37
(UTC-04:00)

Cosmos 1743 - Pass Details

Date: 26 May 2018
Orbit: 511 x 529 km, 82.6° (Epoch: 14 October)

Event Time Altitude Azimuth Distance (km) Brightness Sun altitude
Rises 21:30:07 0° 350° (N) 2,642 7.1 -11.2°
Reaches altitude 10° 21:32:16 10° 348° (NNW) 1,747 6.2 -11.5°
Maximum altitude 21:36:05 71° 265° (W) 545 2.9 -12.1°
Drops below altitude 10° 21:39:50 10° 181° (S) 1,726 5.0 -12.6°
Enters shadow 21:40:01 - 181° (S) 1,801 5.1 -12.7°
